#timestamp,LO_Frequency,Hit,StdDev 
1583344815.2,286047007.2,N
1583344835.0,286047006.1,N
1583344835.9,286047006.1,N
1583344855.8,286047007.1,N
1583344875.6,286047006.8,N
1583344895.5,286047013.5,Y
1583344915.3,286047010.8,P
1583344935.1,286047012.4,N
1583344955.9,286047006.1,N
1583344975.7,286047011.9,N
1583344995.5,286047015.8,Y
1583345015.4,286047005.8,P
1583345035.2,286046995.4,P
1583345055.1,286047000.7,N
1583345056.0,286047000.7,N
1583345075.8,286046995.7,N
1583345095.6,286046998.3,N
1583345115.5,286047003.3,N
1583345135.3,286047003.5,N
1583345155.1,286047006.6,N
1583345175.9,286047001.5,N
1583345195.7,286047007.1,N
1583345215.6,286047009.3,N
1583345235.4,286047012.6,N
1583345255.2,286047012.9,N
1583345275.1,286047010.7,N
1583345276.0,286047010.7,N
1583345295.8,286047004.4,N
1583345315.6,286047000.3,N
1583345335.5,286047000.3,N
1583345355.3,286047008.6,N
1583345375.2,286047005.9,N
1583345395.9,286046998.4,N
1583345415.7,286047002.9,N
1583345435.6,286047001.2,N
1583345455.4,286047002.3,N
1583345475.2,286047005.9,N
1583345495.1,286047003.5,N
1583345496.0,286047003.5,N
1583345515.8,286047005.2,N
1583345535.7,286047000.4,N
1583345555.5,286046998.1,N
1583345575.3,286046993.0,N
1583345595.2,286047002.4,N
1583345615.0,286046996.8,N
1583345615.9,286046996.8,N
1583345635.7,286046996.5,N
1583345655.6,286047002.1,N
1583345675.4,286047000.8,N
1583345695.3,286046999.5,N
1583345715.1,286047007.4,N
1583345716.0,286047007.4,N
1583345735.8,286047004.6,N
1583345755.7,286047008.7,N
1583345775.5,286047007.2,N
1583345795.3,286047008.6,N
1583345815.2,286047009.3,N
1583345835.0,286047015.2,Y
1583345835.9,286047015.2,P
1583345855.8,286047007.8,N
1583345875.6,286047009.1,N
1583345895.4,286047008.9,N
1583345915.3,286047008.2,N
1583345935.1,286047010.4,N
1583345955.9,286047010.9,Y
1583345975.7,286046998.6,P
1583345995.5,286047000.4,N
1583346015.4,286046998.8,N
1583346035.2,286047001.0,N
1583346055.0,286047000.8,N
1583346055.9,286047000.8,N
1583346075.8,286047000.2,N
1583346095.6,286047005.2,N
1583346115.5,286047008.8,N
1583346135.3,286047003.6,N
1583346155.1,286047003.7,N
1583346175.9,286047007.0,N
1583346195.7,286047001.1,N
1583346215.5,286047007.2,N
1583346235.4,286047000.5,N
1583346255.2,286046993.8,N
1583346275.1,286046993.7,N
1583346276.0,286046993.7,N
1583346295.8,286046993.8,N
1583346315.6,286046999.2,N
1583346335.5,286046999.7,N
1583346355.3,286046999.5,N
1583346375.1,286046999.7,N
1583346395.9,286046998.7,N
1583346415.7,286047003.3,N
1583346435.6,286046996.5,N
1583346455.4,286046998.0,N
1583346475.2,286046994.6,N
1583346495.1,286047000.7,N
1583346496.0,286047000.7,N
1583346515.8,286046998.9,N
1583346535.6,286047003.7,N
1583346555.5,286047004.9,N
1583346575.3,286047001.6,N
1583346595.2,286047006.5,N
1583346615.0,286047004.3,N
1583346615.9,286047004.3,N
1583346635.8,286047001.2,N
1583346655.6,286047002.6,N
1583346675.5,286047002.1,N
1583346695.3,286046999.9,N
1583346715.1,286046995.0,N
1583346735.9,286047011.9,Y
1583346755.7,286047002.5,P
1583346775.6,286047009.2,P
1583346795.4,286047011.1,N
1583346815.2,286047005.9,N
1583346835.1,286047006.4,N
1583346836.0,286047006.4,N
1583346855.8,286047001.7,N
1583346875.7,286046998.3,N
1583346895.5,286047002.5,N
1583346915.3,286047000.1,N
1583346935.2,286047005.3,N
1583346955.0,286047008.3,N
1583346955.9,286047008.3,N
1583346975.8,286047010.0,N
1583346995.6,286047009.0,N
1583347015.4,286047011.9,Y
1583347035.3,286047013.2,P
1583347055.1,286047011.2,N
1583347075.9,286047006.1,N
1583347095.7,286047008.3,N
1583347115.5,286047007.6,N
1583347135.4,286047005.0,N
1583347155.2,286047003.0,N
1583347175.0,286046999.0,N
1583347175.9,286046999.0,N
1583347195.8,286047008.2,N
1583347215.6,286047010.8,N
1583347235.5,286047009.7,N
1583347255.3,286047008.2,N
1583347275.1,286047009.0,N
1583347295.9,286047011.9,N
1583347315.7,286047017.2,Y
1583347335.5,286047007.8,P
1583347355.4,286047015.5,P
1583347375.2,286047012.6,P
1583347395.1,286047017.0,Y
1583347396.0,286047017.0,P
1583347415.8,286047010.8,P
1583347435.6,286047012.1,P
1583347455.5,286047010.6,Y
1583347475.3,286046992.2,P
1583347495.2,286046992.8,N
1583347515.9,286046994.9,N
1583347535.7,286046992.4,N
1583347555.6,286046985.7,N
1583347575.4,286046982.2,N
1583347595.2,286046982.2,N
1583347615.1,286046982.1,N
1583347616.0,286046982.1,N
1583347635.8,286046986.5,N
1583347655.7,286046981.7,N
1583347675.5,286046980.5,N
1583347695.3,286046978.9,N
1583347715.2,286046982.4,N
1583347735.0,286046985.7,N
1583347735.9,286046985.7,N
1583347755.7,286046983.1,N
1583347775.6,286046985.9,N
1583347795.4,286046985.0,N
1583347815.3,286046990.0,N
1583347835.1,286046994.6,N
1583347836.0,286046994.6,N
1583347855.8,286046995.7,N
1583347875.7,286046985.3,N
1583347895.5,286046987.3,N
1583347915.3,286046993.3,N
1583347935.2,286046995.4,N
1583347955.0,286047004.3,N
1583347955.9,286047004.3,N
1583347975.8,286047000.1,N
1583347995.6,286047004.8,N
1583348015.4,286047006.8,N
1583348035.3,286046998.9,N
1583348055.1,286046998.2,N
1583348075.8,286047002.0,N
1583348095.7,286047005.6,N
1583348115.5,286047001.5,N
1583348135.4,286046998.9,N
1583348155.2,286046997.4,N
1583348175.0,286047007.4,N
1583348175.9,286047007.4,N
1583348195.8,286047004.6,N
1583348215.6,286046997.2,N
1583348235.4,286046992.7,N
1583348255.3,286046992.0,N
1583348275.1,286046987.9,N
1583348295.9,286046986.7,N
1583348315.7,286046985.5,N
1583348335.5,286046985.8,N
1583348355.4,286046986.5,N
1583348375.2,286046995.5,N
1583348395.0,286046991.3,N
1583348395.9,286046991.3,N
